Conway, MI

7:24 AM EST on February 09, 2016 (GMT -0500)
Harbor Springs

Weather History for KMGN - October, 2013

Change the Weather History Date:

Wednesday, October 30, 2013

  Actual Average (KPLN) Record (KPLN)
Temperature  
Mean Temperature 44 °F -  
Max Temperature 52 °F 52 °F 75 °F (1950)
Min Temperature 35 °F 31 °F 16 °F (1966)
Degree Days  
Heating Degree Days 22    
Moisture  
Dew Point 39 °F    
Average Humidity 86    
Maximum Humidity 95    
Minimum Humidity 72    
Precipitation  
Precipitation 0.00 in - - ()
Sea Level Pressure  
Sea Level Pressure 30.09 in    
Wind  
Wind Speed 3 mph (ENE)    
Max Wind Speed 8 mph    
Max Gust Speed -    
Visibility 10 miles    
Events Rain    
Averages and records for this station are not official NWS values.
T = Trace of Precipitation, MM = Missing Value Source: NWS Daily Summary

Daily Weather History Graph

Daily Weather History Graph

Search for Another Location

Airport or City:

Trip Planner

Search our weather history database for the weather conditions in past years. The results will help you decide how hot, cold, wet, or windy it might be!

Date:

Astronomy

Oct. 30, 2013 Rise Set
Actual Time 8:16 AM EDT 6:29 PM EDT
Civil Twilight 7:45 AM EDT 7:00 PM EDT
Nautical Twilight 7:10 AM EDT 7:34 PM EDT
Astronomical Twilight 6:36 AM EDT 8:09 PM EDT
Moon 3:53 AM EDT (10/30) 4:24 PM EDT (10/30)
Length of Visible Light 11h 14m
Length of Day
10h 12m
Waning Crescent, 17% of the Moon is Illuminated
Oct 30
Waning Crescent
Nov 3
New
Nov 10
First Quarter
Nov 17
Full
Nov 25
Last Quarter

Hourly Weather History & Observations

Time (EDT) Temp. Windchill Dew Point Humidity Pressure Visibility Wind Dir Wind Speed Gust Speed Precip Events Conditions
12:14 AM 36.0 °F - 33.4 °F 91% 30.23 in 10.0 mi Calm Calm - N/A   Overcast
12:34 AM 36.1 °F 33.5 °F 33.4 °F 90% 30.23 in 10.0 mi ENE 3.5 mph - N/A   Overcast
12:55 AM 36.0 °F 33.3 °F 33.3 °F 90% 30.22 in 10.0 mi East 3.5 mph - N/A   Overcast
1:14 AM 36.5 °F - 34.0 °F 91% 30.21 in 10.0 mi Calm Calm - N/A   Overcast
1:34 AM 36.3 °F - 33.8 °F 91% 30.21 in 10.0 mi Calm Calm - N/A   Overcast
1:55 AM 36.0 °F - 33.8 °F 92% 30.21 in 10.0 mi Calm Calm - N/A   Drizzle
2:14 AM 35.8 °F - 33.6 °F 92% 30.21 in 10.0 mi Calm Calm - N/A Rain Light Rain
2:34 AM 35.8 °F 33.0 °F 33.8 °F 92% 30.20 in 10.0 mi NE 3.5 mph - N/A   Overcast
2:55 AM 36.1 °F - 33.8 °F 91% 30.20 in 10.0 mi Calm Calm - N/A   Overcast
3:14 AM 36.5 °F - 34.3 °F 92% 30.19 in 10.0 mi Calm Calm - N/A   Overcast
3:34 AM 36.3 °F - 34.2 °F 92% 30.19 in 10.0 mi Calm Calm - N/A   Overcast
3:55 AM 36.9 °F 34.3 °F 34.9 °F 93% 30.19 in 10.0 mi East 3.5 mph - N/A   Overcast
4:14 AM 37.0 °F 34.5 °F 34.9 °F 92% 30.18 in 10.0 mi East 3.5 mph - N/A   Overcast
4:35 AM 37.0 °F 34.5 °F 35.1 °F 93% 30.17 in 10.0 mi East 3.5 mph - N/A   Overcast
4:54 AM 36.9 °F 34.3 °F 35.1 °F 93% 30.17 in 10.0 mi East 3.5 mph - N/A   Overcast
5:14 AM 37.0 °F - 35.6 °F 95% 30.16 in 10.0 mi Calm Calm - N/A   Overcast
5:35 AM 37.0 °F 34.5 °F 35.2 °F 93% 30.16 in 10.0 mi NE 3.5 mph - N/A   Overcast
5:54 AM 37.0 °F 33.3 °F 35.6 °F 95% 30.16 in 10.0 mi ENE 4.6 mph - N/A   Overcast
6:14 AM 37.0 °F 33.3 °F 35.2 °F 93% 30.16 in 10.0 mi ENE 4.6 mph - N/A   Overcast
6:35 AM 37.0 °F 33.3 °F 35.1 °F 93% 30.16 in 10.0 mi ENE 4.6 mph - N/A   Overcast
6:54 AM 37.0 °F 32.4 °F 35.1 °F 93% 30.16 in 10.0 mi ENE 5.8 mph - N/A   Overcast
7:14 AM 37.0 °F 34.5 °F 34.7 °F 91% 30.16 in 10.0 mi East 3.5 mph - N/A   Overcast
7:35 AM 37.0 °F - 34.7 °F 91% 30.16 in 10.0 mi Calm Calm - N/A   Overcast
7:54 AM 37.0 °F 33.3 °F 34.7 °F 91% 30.16 in 10.0 mi ENE 4.6 mph - N/A   Overcast
8:14 AM 37.0 °F 33.3 °F 34.3 °F 90% 30.16 in 10.0 mi ENE 4.6 mph - N/A   Overcast
8:35 AM 37.2 °F 33.6 °F 34.7 °F 91% 30.16 in 10.0 mi ENE 4.6 mph - N/A   Overcast
8:54 AM 37.2 °F 33.6 °F 34.7 °F 91% 30.16 in 10.0 mi East 4.6 mph - N/A   Overcast
9:14 AM 38.1 °F 34.6 °F 35.8 °F 91% 30.16 in 10.0 mi East 4.6 mph - N/A   Overcast
9:35 AM 39.4 °F 37.2 °F 36.7 °F 90% 30.17 in 10.0 mi East 3.5 mph - N/A   Overcast
9:54 AM 39.6 °F 35.4 °F 36.9 °F 90% 30.16 in 10.0 mi East 5.8 mph - N/A   Drizzle
10:14 AM 39.6 °F 36.3 °F 36.9 °F 90% 30.16 in 10.0 mi East 4.6 mph - N/A Rain Light Rain
10:35 AM 39.6 °F 35.4 °F 37.4 °F 92% 30.16 in 10.0 mi ENE 5.8 mph - N/A Rain Light Rain
10:54 AM 39.6 °F 36.3 °F 37.4 °F 92% 30.15 in 10.0 mi East 4.6 mph - N/A   Mostly Cloudy
11:14 AM 39.7 °F 36.5 °F 37.4 °F 91% 30.14 in 10.0 mi East 4.6 mph - N/A Rain Rain
11:35 AM 40.8 °F 37.8 °F 38.1 °F 90% 30.14 in 10.0 mi East 4.6 mph - N/A   Mostly Cloudy
11:54 AM 41.0 °F 37.1 °F 37.9 °F 89% 30.14 in 10.0 mi East 5.8 mph - N/A   Overcast
12:14 PM 41.2 °F 37.3 °F 38.3 °F 89% 30.13 in 10.0 mi ENE 5.8 mph - N/A   Drizzle
12:35 PM 42.3 °F 38.6 °F 39.4 °F 90% 30.13 in 10.0 mi ENE 5.8 mph - N/A Rain Light Rain
12:54 PM 42.3 °F 38.6 °F 39.2 °F 89% 30.12 in 10.0 mi East 5.8 mph - N/A   Overcast
1:14 PM 42.8 °F 38.6 °F 39.6 °F 88% 30.11 in 10.0 mi East 6.9 mph - N/A   Overcast
1:34 PM 43.7 °F 41.1 °F 39.6 °F 85% 30.11 in 10.0 mi East 4.6 mph - N/A   Overcast
1:54 PM 44.8 °F 41.6 °F 40.6 °F 85% 30.09 in 10.0 mi ENE 5.8 mph - N/A   Overcast
2:14 PM 47.1 °F - 42.6 °F 84% 30.08 in 10.0 mi NE 5.8 mph - N/A   Overcast
2:34 PM 47.3 °F - 42.1 °F 82% 30.07 in 10.0 mi ENE 6.9 mph - N/A   Mostly Cloudy
2:54 PM 47.7 °F - 42.1 °F 81% 30.07 in 10.0 mi ENE 6.9 mph - N/A   Mostly Cloudy
3:15 PM 50.0 °F - 43.5 °F 78% 30.07 in 10.0 mi ENE 5.8 mph - N/A   Overcast
3:34 PM 50.0 °F - 43.0 °F 77% 30.06 in 10.0 mi ENE 6.9 mph - N/A   Mostly Cloudy
3:54 PM 50.0 °F - 42.3 °F 75% 30.05 in 10.0 mi East 5.8 mph - N/A   Overcast
4:15 PM 50.0 °F - 41.7 °F 73% 30.03 in 10.0 mi East 5.8 mph - N/A   Mostly Cloudy
4:34 PM 50.5 °F - 41.9 °F 72% 30.02 in 10.0 mi East 4.6 mph - N/A   Mostly Cloudy
4:54 PM 51.3 °F - 42.6 °F 72% 30.01 in 10.0 mi East 6.9 mph - N/A   Mostly Cloudy
5:14 PM 52.3 °F - 43.5 °F 72% 30.01 in 10.0 mi East 6.9 mph - N/A   Mostly Cloudy
5:34 PM 51.1 °F - 42.8 °F 73% 30.00 in 10.0 mi East 6.9 mph - N/A   Overcast
5:55 PM 50.0 °F - 42.8 °F 76% 29.99 in 10.0 mi ENE 6.9 mph - N/A   Scattered Clouds
6:14 PM 50.0 °F - 43.2 °F 77% 29.99 in 10.0 mi ENE 5.8 mph - N/A   Clear
6:34 PM 50.0 °F - 43.9 °F 79% 29.98 in 10.0 mi ENE 5.8 mph - N/A   Scattered Clouds
6:55 PM 50.0 °F - 44.1 °F 80% 29.97 in 10.0 mi ENE 8.1 mph - N/A   Scattered Clouds
7:14 PM 50.0 °F - 43.5 °F 78% 29.97 in 10.0 mi ENE 8.1 mph - N/A   Mostly Cloudy
7:34 PM 50.0 °F - 43.2 °F 77% 29.96 in 10.0 mi ENE 6.9 mph - N/A   Mostly Cloudy
7:55 PM 50.0 °F - 43.7 °F 79% 29.96 in 10.0 mi ENE 5.8 mph - N/A   Overcast
8:14 PM 50.0 °F - 44.1 °F 80% 29.94 in 10.0 mi East 6.9 mph - N/A   Overcast
8:34 PM 47.8 °F - 43.0 °F 83% 29.93 in 10.0 mi ENE 5.8 mph - N/A   Mostly Cloudy
8:55 PM 47.5 °F - 42.6 °F 83% 29.92 in 10.0 mi ENE 3.5 mph - N/A   Scattered Clouds
9:14 PM 49.6 °F - 44.4 °F 82% 29.93 in 10.0 mi NNE 4.6 mph - N/A   Mostly Cloudy
9:34 PM 50.0 °F - 44.1 °F 80% 29.93 in 10.0 mi NE 4.6 mph - N/A   Overcast
9:55 PM 50.0 °F - 44.1 °F 80% 29.92 in 10.0 mi NE 3.5 mph - N/A   Overcast
10:14 PM 49.6 °F - 44.6 °F 83% 29.91 in 10.0 mi ENE 5.8 mph - N/A   Overcast
10:34 PM 50.0 °F - 43.7 °F 79% 29.90 in 10.0 mi ENE 5.8 mph - N/A   Overcast
10:54 PM 50.0 °F - 44.6 °F 82% 29.88 in 10.0 mi NE 5.8 mph - N/A   Overcast
11:14 PM 50.0 °F - 45.0 °F 83% 29.87 in 10.0 mi NE 5.8 mph - N/A Rain Light Rain
11:35 PM 50.0 °F - 45.7 °F 85% 29.87 in 10.0 mi East 3.5 mph - N/A   Overcast
11:54 PM 50.0 °F - 45.7 °F 85% 29.86 in 10.0 mi NE 5.8 mph - N/A   Overcast